NIMBUS 2 DEB, 26670

Orbit data source: Space-Track

NIMBUS 2 DEB, 26670 is space debris in SSO originally from a launch on Sun, 15 May 1966 UTC launched from the Air Force Western Test Range (AFWTR). Debris objects in space refer to the collection of defunct objects orbiting the Earth. Examples of debris include non-operational satellites, rocket bodies, and fragments generated from explosions, collisions, or faulty payload assembly.

Loading next visibility...
Identifier
26670, 1966-040K
Orbit
SSO
Country
Flag of USUS
Related business
Manufacturer
Unknown
Mission
Spacecraft
Bus & Motor
Unknown
Mass
Unknown
Launch date (UTC)
1966-05-15 (60 years ago)
Launch vehicle
Unknown
Launch site
Air Force Western Test Range (AFWTR)
Object type
Payload
Rocket body
Debris
Shape & HBR
Unknown shape, 0.1 m
Radar Cross Section
Small (<0.1 m²)

Expand to show TLE details & history
Last TLE update: 11 hours ago

TLE from 11 hours ago
0 NIMBUS 2 DEB
1 26670U 66040K   26125.47634059  .00007953  00000-0  55458-2 0  9994
2 26670 100.2935 317.1009 0030184 178.2653 212.0496 13.98674188944637
Epoch: 2026-05-05T11:25Z
TLE epoch observation values (Epoch: 2026-05-05T11:25:55.826Z)
Latitude
29.64863°
Longitude
-83.63475°
Altitude
920.645 km
Speed
7.385 km/s
True Right ascension
20h 44m 47s
True Declination
29° 30' 16"
Sunlit
Object was in daylight at epoch
Visualization orbit readout
Latitude
Unknown
Longitude
Unknown
Altitude
Unknown
Speed
Unknown
Apparent Right ascension
Unknown
Apparent Declination
Unknown
Sunlit
N/A
Visualization observer readout
Local Sidereal Time
06:44:53
Azimuth
Unknown
Elevation
Unknown
Doppler factor
Unknown
Orbital elements
Apogee altitude
917.614 km
Perigee altitude
873.703 km
Semi-major axis
7,273.796 km
Eccentricity
0.00302
Inclination
100.2935°
RAAN
317.1009°
Arg. of periapsis
178.2653°
True anomaly
211.86664°
Mean anomaly
212.0496°
Eccentric anomaly
211.95806°
Mean motion
3.49866 °/min
Orbital period
102.9 mins
BSTAR
0.0055458
Loading maneuver chart data...
Computing Atmospheric mass density...
Loading historical data...
Loading historical data...
Loading historical data...
Loading historical data...
Loading historical data...
Loading historical data...
Loading historical data...

Documentation

Showing up to 5 results
|